Time,TemperatureF,DewpointF,PressureIn,WindDirection,WindDirectionDegrees,WindSpeedMPH,WindSpeedGustMPH,Humidity,HourlyPrecipIn,Conditions,Clouds,dailyrainin,SolarRadiationWatts/m^2,SoftwareType,DateUTC
2013-06-03 00:03:00,65.0,65.0,30.30,North,356,1.0,3.0,99,0.00,,,1.10,0.000000,,2013-06-03 04:03:00,
2013-06-03 00:33:00,63.0,63.0,30.30,East,96,1.0,2.0,99,0.00,,,1.10,0.000000,,2013-06-03 04:33:00,
2013-06-03 00:42:00,63.0,63.0,30.30,East,96,1.0,2.0,99,0.00,,,1.10,0.000000,,2013-06-03 04:42:00,
2013-06-03 00:53:00,63.0,63.0,30.30,East,96,1.0,2.0,99,0.00,,,1.10,0.000000,,2013-06-03 04:53:00,
2013-06-03 01:02:00,63.0,63.0,30.30,East,96,1.0,2.0,99,0.00,,,1.10,0.000000,,2013-06-03 05:02:00,
2013-06-03 01:32:00,65.0,65.0,30.30,SSW,212,0.0,3.0,99,0.00,,,1.02,0.000000,,2013-06-03 05:32:00,
2013-06-03 01:43:00,65.0,65.0,30.30,SSW,212,0.0,3.0,99,0.00,,,1.02,0.000000,,2013-06-03 05:43:00,
2013-06-03 01:52:00,65.0,65.0,30.30,SSW,212,0.0,3.0,99,0.00,,,1.02,0.000000,,2013-06-03 05:52:00,
2013-06-03 02:02:00,65.0,65.0,30.30,SSW,212,0.0,3.0,99,0.00,,,1.02,0.000000,,2013-06-03 06:02:00,
2013-06-03 02:32:00,63.0,63.0,30.29,West,275,1.0,3.0,100,0.00,,,1.02,0.000000,,2013-06-03 06:32:00,
2013-06-03 02:42:00,63.0,63.0,30.29,West,275,1.0,3.0,100,0.00,,,1.02,0.000000,,2013-06-03 06:42:00,
2013-06-03 02:53:00,63.0,63.0,30.29,West,275,1.0,3.0,100,0.00,,,1.02,0.000000,,2013-06-03 06:53:00,
2013-06-03 03:02:00,63.0,63.0,30.29,West,275,1.0,3.0,100,0.00,,,1.02,0.000000,,2013-06-03 07:02:00,
2013-06-03 03:32:00,64.0,64.0,30.28,ENE,64,1.0,2.0,100,0.00,,,1.02,0.000000,,2013-06-03 07:32:00,
2013-06-03 03:42:00,64.0,64.0,30.28,ENE,64,1.0,2.0,100,0.00,,,1.02,0.000000,,2013-06-03 07:42:00,
2013-06-03 03:52:00,64.0,64.0,30.28,ENE,64,1.0,2.0,100,0.00,,,1.02,0.000000,,2013-06-03 07:52:00,
2013-06-03 04:02:00,64.0,64.0,30.28,ENE,64,1.0,2.0,100,0.00,,,1.02,0.000000,,2013-06-03 08:02:00,
2013-06-03 04:32:00,64.0,64.0,30.27,East,79,1.0,4.0,100,0.00,,,1.02,0.000000,,2013-06-03 08:32:00,
2013-06-03 04:42:00,64.0,64.0,30.27,East,79,1.0,4.0,100,0.00,,,1.02,0.000000,,2013-06-03 08:42:00,
2013-06-03 04:52:00,64.0,64.0,30.27,East,79,1.0,4.0,100,0.00,,,1.02,0.000000,,2013-06-03 08:52:00,
2013-06-03 05:02:00,64.0,64.0,30.27,East,79,1.0,4.0,100,0.00,,,1.02,0.000000,,2013-06-03 09:02:00,
2013-06-03 05:33:00,64.0,64.0,30.27,SSE,158,1.0,3.0,100,0.00,,,1.02,0.000000,,2013-06-03 09:33:00,
2013-06-03 05:43:00,64.0,64.0,30.27,SSE,158,1.0,3.0,100,0.00,,,1.02,0.000000,,2013-06-03 09:43:00,
2013-06-03 05:53:00,64.0,64.0,30.27,SSE,158,1.0,3.0,100,0.00,,,1.02,0.000000,,2013-06-03 09:53:00,
2013-06-03 06:03:00,64.0,64.0,30.27,SSE,158,1.0,3.0,100,0.00,,,1.02,0.000000,,2013-06-03 10:03:00,
2013-06-03 06:33:00,64.0,64.0,30.28,South,191,1.0,2.0,100,0.00,,,1.01,0.000000,,2013-06-03 10:33:00,
2013-06-03 06:42:00,64.0,64.0,30.28,South,191,1.0,2.0,100,0.00,,,1.01,0.000000,,2013-06-03 10:42:00,
2013-06-03 06:53:00,64.0,64.0,30.28,South,191,1.0,2.0,100,0.00,,,1.01,0.000000,,2013-06-03 10:53:00,
2013-06-03 07:02:00,64.0,64.0,30.28,South,191,1.0,2.0,100,0.00,,,1.01,0.000000,,2013-06-03 11:02:00,
2013-06-03 07:32:00,64.0,64.0,30.29,NE,42,1.0,2.0,100,0.00,,,1.01,10.000000,,2013-06-03 11:32:00,
2013-06-03 07:42:00,64.0,64.0,30.29,NE,42,1.0,2.0,100,0.00,,,1.01,10.000000,,2013-06-03 11:42:00,
2013-06-03 07:52:00,64.0,64.0,30.29,NE,42,1.0,2.0,100,0.00,,,1.01,10.000000,,2013-06-03 11:52:00,
2013-06-03 08:02:00,64.0,64.0,30.29,NE,42,1.0,2.0,100,0.00,,,1.01,10.000000,,2013-06-03 12:02:00,
2013-06-03 08:32:00,64.0,64.0,30.30,ESE,117,2.0,4.0,100,0.00,,,-99.99,65.000000,,2013-06-03 12:32:00,
2013-06-03 08:42:00,64.0,64.0,30.30,ESE,117,2.0,4.0,100,0.00,,,-99.99,65.000000,,2013-06-03 12:42:00,
2013-06-03 08:52:00,64.0,64.0,30.30,ESE,117,2.0,4.0,100,0.00,,,-99.99,65.000000,,2013-06-03 12:52:00,
2013-06-03 09:02:00,64.0,64.0,30.30,ESE,117,2.0,4.0,100,0.00,,,-99.99,65.000000,,2013-06-03 13:02:00,
2013-06-03 09:33:00,68.0,65.0,30.31,NNW,346,1.0,5.0,89,0.00,,,0.99,167.000000,,2013-06-03 13:33:00,
2013-06-03 09:43:00,68.0,65.0,30.31,NNW,346,1.0,5.0,89,0.00,,,0.99,167.000000,,2013-06-03 13:43:00,
2013-06-03 09:53:00,68.0,65.0,30.31,NNW,346,1.0,5.0,89,0.00,,,0.99,167.000000,,2013-06-03 13:53:00,
2013-06-03 10:02:00,68.0,65.0,30.31,NNW,346,1.0,5.0,89,0.00,,,0.99,167.000000,,2013-06-03 14:02:00,
2013-06-03 10:33:00,73.0,65.0,30.31,WNW,294,4.0,10.0,75,0.00,,,0.94,369.000000,,2013-06-03 14:33:00,
2013-06-03 10:42:00,73.0,65.0,30.31,WNW,294,4.0,10.0,75,0.00,,,0.94,369.000000,,2013-06-03 14:42:00,
2013-06-03 10:52:00,73.0,65.0,30.31,WNW,294,4.0,10.0,75,0.00,,,0.94,369.000000,,2013-06-03 14:52:00,
2013-06-03 11:02:00,73.0,65.0,30.31,WNW,294,4.0,10.0,75,0.00,,,0.94,369.000000,,2013-06-03 15:02:00,
2013-06-03 11:33:00,77.0,66.0,30.31,WNW,289,3.0,13.0,68,0.00,,,0.80,637.000000,,2013-06-03 15:33:00,
2013-06-03 11:43:00,77.0,66.0,30.31,WNW,289,3.0,13.0,68,0.00,,,0.80,637.000000,,2013-06-03 15:43:00,
2013-06-03 11:53:00,77.0,66.0,30.31,WNW,289,3.0,13.0,68,0.00,,,0.80,637.000000,,2013-06-03 15:53:00,
2013-06-03 12:03:00,77.0,66.0,30.31,WNW,289,3.0,13.0,68,0.00,,,0.80,637.000000,,2013-06-03 16:03:00,
2013-06-03 12:33:00,78.0,63.0,30.31,NNW,344,6.0,16.0,60,0.00,,,0.64,1022.000000,,2013-06-03 16:33:00,
2013-06-03 12:42:00,78.0,63.0,30.31,NNW,344,6.0,16.0,60,0.00,,,0.64,1022.000000,,2013-06-03 16:42:00,
2013-06-03 12:53:00,78.0,63.0,30.31,NNW,344,6.0,16.0,60,0.00,,,0.64,1022.000000,,2013-06-03 16:53:00,
2013-06-03 13:02:00,78.0,63.0,30.31,NNW,344,6.0,16.0,60,0.00,,,0.64,1022.000000,,2013-06-03 17:02:00,
2013-06-03 13:33:00,77.0,63.0,30.30,NW,316,4.0,20.0,61,0.00,,,0.27,1039.000000,,2013-06-03 17:33:00,
2013-06-03 13:42:00,77.0,63.0,30.30,NW,316,4.0,20.0,61,0.00,,,0.27,1039.000000,,2013-06-03 17:42:00,
2013-06-03 13:52:00,77.0,63.0,30.30,NW,316,4.0,20.0,61,0.00,,,0.27,1039.000000,,2013-06-03 17:52:00,
2013-06-03 14:02:00,77.0,63.0,30.30,NW,316,4.0,20.0,61,0.00,,,0.27,1039.000000,,2013-06-03 18:02:00,
2013-06-03 14:32:00,79.0,60.0,30.28,NW,309,5.0,15.0,53,0.00,,,0.27,1190.000000,,2013-06-03 18:32:00,
2013-06-03 14:43:00,79.0,60.0,30.28,NW,309,5.0,15.0,53,0.00,,,0.27,1190.000000,,2013-06-03 18:43:00,
2013-06-03 14:53:00,79.0,60.0,30.28,NW,309,5.0,15.0,53,0.00,,,0.27,1190.000000,,2013-06-03 18:53:00,
2013-06-03 15:03:00,79.0,60.0,30.28,NW,309,5.0,15.0,53,0.00,,,0.27,1190.000000,,2013-06-03 19:03:00,
2013-06-03 15:33:00,81.0,61.0,30.26,WNW,289,7.0,21.0,51,0.00,,,0.26,1156.000000,,2013-06-03 19:33:00,
2013-06-03 15:42:00,81.0,61.0,30.26,WNW,289,7.0,21.0,51,0.00,,,0.26,1156.000000,,2013-06-03 19:42:00,
2013-06-03 15:53:00,81.0,61.0,30.26,WNW,289,7.0,21.0,51,0.00,,,0.26,1156.000000,,2013-06-03 19:53:00,
2013-06-03 16:02:00,81.0,61.0,30.26,WNW,289,7.0,21.0,51,0.00,,,0.26,1156.000000,,2013-06-03 20:02:00,
2013-06-03 16:33:00,80.0,59.0,30.25,East,93,3.0,21.0,49,0.00,,,0.04,1087.000000,,2013-06-03 20:33:00,
2013-06-03 16:43:00,80.0,59.0,30.25,East,93,3.0,21.0,49,0.00,,,0.04,1087.000000,,2013-06-03 20:43:00,
2013-06-03 16:52:00,80.0,59.0,30.25,East,93,3.0,21.0,49,0.00,,,0.04,1087.000000,,2013-06-03 20:52:00,
2013-06-03 17:02:00,80.0,59.0,30.25,East,93,3.0,21.0,49,0.00,,,0.04,1087.000000,,2013-06-03 21:02:00,
2013-06-03 17:33:00,81.0,62.0,30.25,SE,137,3.0,13.0,52,0.00,,,0.01,819.000000,,2013-06-03 21:33:00,
2013-06-03 17:43:00,81.0,62.0,30.25,SE,137,3.0,13.0,52,0.00,,,0.01,819.000000,,2013-06-03 21:43:00,
2013-06-03 17:53:00,81.0,62.0,30.25,SE,137,3.0,13.0,52,0.00,,,0.01,819.000000,,2013-06-03 21:53:00,
2013-06-03 18:03:00,81.0,62.0,30.25,SE,137,3.0,13.0,52,0.00,,,0.01,819.000000,,2013-06-03 22:03:00,
2013-06-03 18:33:00,81.0,61.0,30.25,ESE,119,2.0,15.0,50,0.00,,,0.01,703.000000,,2013-06-03 22:33:00,
2013-06-03 18:42:00,81.0,61.0,30.25,ESE,119,2.0,15.0,50,0.00,,,0.01,703.000000,,2013-06-03 22:42:00,
2013-06-03 18:53:00,81.0,61.0,30.25,ESE,119,2.0,15.0,50,0.00,,,0.01,703.000000,,2013-06-03 22:53:00,
2013-06-03 19:02:00,81.0,61.0,30.25,ESE,119,2.0,15.0,50,0.00,,,0.01,703.000000,,2013-06-03 23:02:00,
2013-06-03 19:32:00,77.0,61.0,30.26,ENE,62,2.0,11.0,57,0.00,,,0.01,478.000000,,2013-06-03 23:32:00,
2013-06-03 19:42:00,77.0,61.0,30.26,ENE,62,2.0,11.0,57,0.00,,,0.01,478.000000,,2013-06-03 23:42:00,
2013-06-03 19:52:00,77.0,61.0,30.26,ENE,62,2.0,11.0,57,0.00,,,0.01,478.000000,,2013-06-03 23:52:00,
2013-06-03 20:02:00,77.0,61.0,30.26,ENE,62,2.0,11.0,57,0.00,,,0.01,478.000000,,2013-06-04 00:02:00,
2013-06-03 20:32:00,70.0,60.0,30.29,SW,235,1.0,8.0,70,0.00,,,0.01,177.000000,,2013-06-04 00:32:00,
2013-06-03 20:42:00,70.0,60.0,30.29,SW,235,1.0,8.0,70,0.00,,,0.01,177.000000,,2013-06-04 00:42:00,
2013-06-03 20:52:00,70.0,60.0,30.29,SW,235,1.0,8.0,70,0.00,,,0.01,177.000000,,2013-06-04 00:52:00,
2013-06-03 21:02:00,70.0,60.0,30.29,SW,235,1.0,8.0,70,0.00,,,0.01,177.000000,,2013-06-04 01:02:00,
2013-06-03 21:32:00,66.0,60.0,30.30,NW,308,1.0,3.0,81,0.00,,,0.00,18.000000,,2013-06-04 01:32:00,
2013-06-03 21:42:00,66.0,60.0,30.30,NW,308,1.0,3.0,81,0.00,,,0.00,18.000000,,2013-06-04 01:42:00,
2013-06-03 21:53:00,66.0,60.0,30.30,NW,308,1.0,3.0,81,0.00,,,0.00,18.000000,,2013-06-04 01:53:00,
2013-06-03 22:02:00,66.0,60.0,30.30,NW,308,1.0,3.0,81,0.00,,,0.00,18.000000,,2013-06-04 02:02:00,
2013-06-03 22:32:00,63.0,59.0,30.33,East,86,1.0,4.0,87,0.00,,,0.00,0.000000,,2013-06-04 02:32:00,
2013-06-03 22:42:00,63.0,59.0,30.33,East,86,1.0,4.0,87,0.00,,,0.00,0.000000,,2013-06-04 02:42:00,
2013-06-03 22:52:00,63.0,59.0,30.33,East,86,1.0,4.0,87,0.00,,,0.00,0.000000,,2013-06-04 02:52:00,
2013-06-03 23:02:00,63.0,59.0,30.33,East,86,1.0,4.0,87,0.00,,,0.00,0.000000,,2013-06-04 03:02:00,
2013-06-03 23:33:00,62.0,60.0,30.35,NNW,329,1.0,3.0,92,0.00,,,0.00,0.000000,,2013-06-04 03:33:00,
2013-06-03 23:43:00,62.0,60.0,30.35,NNW,329,1.0,3.0,92,0.00,,,0.00,0.000000,,2013-06-04 03:43:00,
2013-06-03 23:54:00,62.0,60.0,30.35,NNW,329,1.0,3.0,92,0.00,,,0.00,0.000000,,2013-06-04 03:54:00,